Winslow, AZ

12:11 AM MST on August 20, 2017 (GMT -0700)
Winslow-Lindbergh Regional

Weather History for KINW - October, 2012

Change the Weather History Date:

Monday, October 15, 2012

  Actual Average Record
Temperature  
Mean Temperature 58 °F 57 °F  
Max Temperature 79 °F 74 °F 87 °F (2011)
Min Temperature 37 °F 40 °F 25 °F (1966)
Degree Days  
Heating Degree Days 7 8  
Month to date heating degree days 54 89  
Since 1 July heating degree days 56 120  
Cooling Degree Days 0 0  
Month to date cooling degree days 19 6  
Year to date cooling degree days 1442 1207  
Growing Degree Days 8 (Base 50)    
Moisture  
Dew Point 28 °F    
Average Humidity 41    
Maximum Humidity 70    
Minimum Humidity 12    
Precipitation  
Precipitation 0.00 in 0.01 in 0.28 in (1994)
Month to date precipitation 0.13 0.27  
Year to date precipitation 4.87 5.68  
Sea Level Pressure  
Sea Level Pressure 30.06 in    
Wind  
Wind Speed 3 mph (ESE)    
Max Wind Speed 9 mph    
Max Gust Speed 14 mph    
Visibility 10 miles    
Events      
T = Trace of Precipitation, MM = Missing Value Source: NWS Daily Summary

Daily Weather History Graph

Daily Weather History Graph

Search for Another Location

Airport or City:

Trip Planner

Search our weather history database for the weather conditions in past years. The results will help you decide how hot, cold, wet, or windy it might be!

Date:

Astronomy

Oct. 15, 2012 Rise Set
Actual Time 6:29 AM MST 5:47 PM MST
Civil Twilight 6:03 AM MST 6:12 PM MST
Nautical Twilight 5:34 AM MST 6:42 PM MST
Astronomical Twilight 5:05 AM MST 7:11 PM MST
Moon 6:41 AM MST (10/15) 5:52 PM MST (10/15)
Length of Visible Light 12h 08m
Length of Day
11h 17m
New Moon, 0% of the Moon is Illuminated
Oct 15
New Moon
Oct 21
First Quarter
Oct 29
Full
Nov 6
Last Quarter
Nov 13
New

Hourly Weather History & Observations

Time (MST) Temp. Windchill Dew Point Humidity Pressure Visibility Wind Dir Wind Speed Gust Speed Precip Events Conditions
12:56 AM 45.0 °F 42.6 °F 32.0 °F 60% 30.14 in 10.0 mi SSW 4.6 mph - N/A   Clear
1:56 AM 42.1 °F 38.4 °F 30.0 °F 62% 30.14 in 10.0 mi SW 5.8 mph - N/A   Clear
2:56 AM 44.6 °F - 33.8 °F 66% 30.24 in 10.0 mi Calm Calm - N/A   Clear
3:56 AM 42.1 °F - 32.0 °F 67% 30.12 in 10.0 mi Calm Calm - N/A   Clear
4:56 AM 41.0 °F - 30.2 °F 65% 30.24 in 10.0 mi Calm Calm - N/A   Clear
5:56 AM 37.9 °F 35.5 °F 28.9 °F 70% 30.16 in 10.0 mi SE 3.5 mph - N/A   Clear
6:56 AM 37.9 °F 35.5 °F 27.0 °F 65% 30.19 in 10.0 mi ESE 3.5 mph - N/A   Clear
7:56 AM 46.0 °F 43.1 °F 30.9 °F 56% 30.19 in 10.0 mi East 5.8 mph - N/A   Clear
8:56 AM 54.0 °F - 34.0 °F 47% 30.17 in 10.0 mi ESE 4.6 mph - N/A   Clear
9:56 AM 61.0 °F - 36.0 °F 39% 30.14 in 10.0 mi ESE 5.8 mph - N/A   Clear
11:56 AM 70.0 °F - 34.0 °F 27% 30.05 in 10.0 mi Variable 4.6 mph - N/A   Clear
12:56 PM 73.9 °F - 33.1 °F 22% 30.02 in 10.0 mi Variable 3.5 mph - N/A   Clear
1:56 PM 75.9 °F - 28.0 °F 17% 29.99 in 10.0 mi Calm Calm - N/A   Clear
2:56 PM 78.1 °F - 26.1 °F 15% 29.96 in 10.0 mi Variable 5.8 mph - N/A   Clear
3:56 PM 78.8 °F - 23.0 °F 13% 30.09 in 10.0 mi Variable 6.9 mph - N/A   Clear
4:56 PM 77.0 °F - 24.1 °F 14% 29.94 in 10.0 mi NNE 4.6 mph - N/A   Clear
5:56 PM 73.0 °F - 24.1 °F 16% 29.96 in 10.0 mi North 3.5 mph - N/A   Clear
6:56 PM 64.9 °F - 24.1 °F 21% 30.00 in 10.0 mi Calm Calm - N/A   Clear
7:56 PM 63.0 °F - 21.9 °F 21% 29.99 in 10.0 mi NNW 3.5 mph - N/A   Clear
8:56 PM 54.0 °F - 21.0 °F 28% 30.01 in 10.0 mi SW 4.6 mph - N/A   Clear
9:56 PM 54.0 °F - 24.1 °F 31% 29.98 in 10.0 mi Calm Calm - N/A   Clear
10:56 PM 51.1 °F - 26.1 °F 38% 29.96 in 10.0 mi Calm Calm - N/A   Clear
11:56 PM 53.1 °F - 26.1 °F 35% 29.93 in 10.0 mi Calm Calm - N/A   Clear